| time (UTC) | temp F | wind direction | speed knots | gust knots | rain 1hr in | rain 24hr in | rain mn in | humidity % | barometer mb |
| 20260507052502 | 47 | 255 | 4.3 | 0.0 | 0.00 | 0.00 | 0.00 | 86 | 1012.0 |
| 20260507052001 | 47 | 255 | 7.0 | 0.0 | 0.00 | 0.00 | 0.00 | 86 | 1011.9 |
| 20260507051502 | 47 | 249 | 6.1 | 0.0 | 0.00 | 0.00 | 0.00 | 86 | 1011.8 |
| 20260507051002 | 46 | 238 | 2.6 | 0.0 | 0.00 | 0.00 | 0.00 | 85 | 1011.9 |
| 20260507050502 | 47 | 255 | 2.6 | 0.0 | 0.00 | 0.00 | 0.00 | 85 | 1011.7 |
| 20260507050001 | 47 | 247 | 6.1 | 0.0 | 0.00 | 0.00 | 0.00 | 85 | 1011.7 |
| 20260507045502 | 47 | 246 | 5.2 | 0.0 | 0.00 | 0.00 | 0.00 | 85 | 1011.6 |
| 20260507045001 | 46 | 272 | 5.2 | 0.0 | 0.00 | 0.00 | 0.00 | 84 | 1011.6 |
| 20260507044503 | 47 | 270 | 5.2 | 0.0 | 0.00 | 0.00 | 0.00 | 84 | 1011.5 |
| 20260507044002 | 46 | 275 | 2.6 | 0.0 | 0.00 | 0.00 | 0.00 | 85 | 1011.5 |
| 20260507043501 | 46 | 247 | 1.7 | 0.0 | 0.00 | 0.00 | 0.00 | 85 | 1011.4 |
| 20260507043002 | 46 | 252 | 3.5 | 0.0 | 0.00 | 0.00 | 0.00 | 85 | 1011.4 |
| 20260507042501 | 46 | 244 | 3.5 | 0.0 | 0.00 | 0.00 | 0.00 | 86 | 1011.3 |
| 20260507042002 | 46 | 248 | 6.1 | 0.0 | 0.00 | 0.00 | 0.00 | 85 | 1011.2 |
| 20260507041501 | 46 | 245 | 5.2 | 0.0 | 0.00 | 0.00 | 0.00 | 86 | 1011.1 |
| 20260507041002 | 46 | 251 | 7.0 | 0.0 | 0.00 | 0.00 | 0.00 | 86 | 1011.2 |
| 20260507040501 | 46 | 250 | 2.6 | 0.0 | 0.00 | 0.00 | 0.00 | 85 | 1011.2 |
| 20260507040002 | 46 | 253 | 6.1 | 0.0 | 0.00 | 0.00 | 0.00 | 86 | 1011.1 |
| 20260507035503 | 46 | 245 | 5.2 | 0.0 | 0.00 | 0.00 | 0.00 | 86 | 1011.1 |
| 20260507035002 | 46 | 247 | 4.3 | 0.0 | 0.00 | 0.00 | 0.00 | 87 | 1011.1 |
| 20260507034502 | 46 | 258 | 7.8 | 0.0 | 0.00 | 0.00 | 0.00 | 87 | 1011.1 |
| 20260507034001 | 46 | 260 | 6.1 | 0.0 | 0.00 | 0.00 | 0.00 | 87 | 1010.9 |
| 20260507033502 | 46 | 279 | 8.7 | 0.0 | 0.00 | 0.00 | 0.00 | 88 | 1011.1 |
| 20260507033001 | 46 | 260 | 4.3 | 0.0 | 0.00 | 0.00 | 0.00 | 89 | 1011.0 |
| 20260507032502 | 46 | 250 | 1.7 | 0.0 | 0.00 | 0.00 | 0.00 | 89 | 1010.9 |
| 20260507032001 | 46 | 242 | 2.6 | 0.0 | 0.00 | 0.00 | 0.00 | 89 | 1011.0 |
| 20260507031501 | 46 | 243 | 2.6 | 0.0 | 0.00 | 0.00 | 0.00 | 89 | 1010.9 |
| 20260507031002 | 46 | 237 | 3.5 | 0.0 | 0.00 | 0.00 | 0.00 | 88 | 1010.9 |
| 20260507030501 | 46 | 220 | 4.3 | 0.0 | 0.00 | 0.00 | 0.00 | 88 | 1010.8 |
| 20260507030001 | 46 | 219 | 5.2 | 0.0 | 0.00 | 0.00 | 0.00 | 87 | 1010.9 |
| 20260507025502 | 46 | 227 | 4.3 | 0.0 | 0.00 | 0.00 | 0.00 | 85 | 1010.9 |
| 20260507025001 | 46 | 223 | 3.5 | 0.0 | 0.00 | 0.00 | 0.00 | 85 | 1011.0 |
| 20260507024501 | 46 | 252 | 4.3 | 0.0 | 0.00 | 0.00 | 0.00 | 84 | 1010.9 |
| 20260507023501 | 46 | 251 | 5.2 | 0.0 | 0.00 | 0.00 | 0.00 | 83 | 1010.9 |
| 20260507023001 | 46 | 256 | 2.6 | 0.0 | 0.00 | 0.00 | 0.00 | 83 | 1010.8 |
| 20260507022502 | 47 | 298 | 5.2 | 0.0 | 0.00 | 0.00 | 0.00 | 83 | 1010.9 |
| 20260507022001 | 47 | 284 | 4.3 | 0.0 | 0.00 | 0.00 | 0.00 | 83 | 1010.8 |
| 20260507021501 | 47 | 268 | 5.2 | 0.0 | 0.00 | 0.00 | 0.00 | 83 | 1010.8 |
| 20260507021002 | 47 | 257 | 3.5 | 0.0 | 0.00 | 0.00 | 0.00 | 83 | 1010.8 |
| 20260507020501 | 47 | 255 | 3.5 | 0.0 | 0.00 | 0.00 | 0.00 | 83 | 1010.7 |
| 20260507020001 | 47 | 295 | 3.5 | 0.0 | 0.00 | 0.00 | 0.00 | 84 | 1010.8 |
| 20260507015502 | 47 | 265 | 6.1 | 0.0 | 0.00 | 0.00 | 0.00 | 83 | 1010.6 |
| 20260507015001 | 47 | 290 | 6.1 | 0.0 | 0.00 | 0.00 | 0.00 | 84 | 1010.7 |
| 20260507014502 | 47 | 268 | 4.3 | 0.0 | 0.00 | 0.00 | 0.00 | 83 | 1010.7 |
| 20260507014002 | 47 | 257 | 5.2 | 0.0 | 0.00 | 0.00 | 0.00 | 83 | 1010.7 |
| 20260507013501 | 47 | 295 | 6.1 | 0.0 | 0.00 | 0.00 | 0.00 | 83 | 1010.7 |
| 20260507013002 | 47 | 266 | 7.0 | 0.0 | 0.00 | 0.00 | 0.00 | 84 | 1010.7 |
| 20260507012502 | 47 | 270 | 7.0 | 0.0 | 0.00 | 0.00 | 0.00 | 84 | 1010.7 |
| 20260507012001 | 47 | 261 | 4.3 | 0.0 | 0.00 | 0.00 | 0.00 | 85 | 1010.7 |
| 20260507011501 | 47 | 245 | 5.2 | 0.0 | 0.00 | 0.00 | 0.00 | 86 | 1010.7 |
| 20260507011002 | 47 | 280 | 7.8 | 0.0 | 0.00 | 0.00 | 0.00 | 86 | 1010.6 |
| 20260507010501 | 46 | 262 | 1.7 | 0.0 | 0.00 | 0.00 | 0.00 | 88 | 1010.6 |
| 20260507010001 | 46 | 261 | 1.7 | 0.0 | 0.00 | 0.00 | 0.00 | 88 | 1010.6 |
| 20260507005502 | 46 | 243 | 5.2 | 0.0 | 0.00 | 0.00 | 0.00 | 88 | 1010.7 |
| 20260507005001 | 46 | 240 | 3.5 | 0.0 | 0.00 | 0.00 | 0.00 | 87 | 1010.6 |
| 20260507004501 | 46 | 235 | 5.2 | 0.0 | 0.00 | 0.00 | 0.00 | 88 | 1010.4 |
| 20260507004002 | 46 | 237 | 6.1 | 0.0 | 0.00 | 0.00 | 0.00 | 89 | 1010.4 |
| 20260507003501 | 46 | 261 | 3.5 | 0.0 | 0.00 | 0.00 | 0.00 | 92 | 1010.3 |
| 20260507003001 | 45 | 252 | 4.3 | 0.0 | 0.00 | 0.00 | 0.00 | 92 | 1010.3 |
| 20260507002502 | 45 | 244 | 6.1 | 0.0 | 0.00 | 0.00 | 0.00 | 92 | 1010.3 |
| 20260507002001 | 44 | 230 | 4.3 | 0.0 | 0.00 | 0.00 | 0.00 | 92 | 1010.5 |
| 20260507001501 | 44 | 229 | 2.6 | 0.0 | 0.00 | 0.00 | 0.00 | 92 | 1010.4 |
| 20260507001002 | 44 | 238 | 3.5 | 0.0 | 0.00 | 0.00 | 0.00 | 92 | 1010.4 |
| 20260507000501 | 44 | 235 | 1.7 | 0.0 | 0.00 | 0.00 | 0.00 | 92 | 1010.3 |
| 20260507000002 | 44 | 248 | 3.5 | 0.0 | 0.00 | 0.00 | 0.00 | 92 | 1010.5 |
| 20260506235502 | 44 | 235 | 2.6 | 0.0 | 0.00 | 0.00 | 0.00 | 92 | 1010.4 |
| 20260506235001 | 45 | 242 | 2.6 | 0.0 | 0.00 | 0.00 | 0.00 | 91 | 1010.4 |
| 20260506234502 | 45 | 251 | 1.7 | 0.0 | 0.00 | 0.00 | 0.00 | 91 | 1010.4 |
| 20260506234002 | 45 | 244 | 2.6 | 0.0 | 0.00 | 0.00 | 0.00 | 92 | 1010.4 |
| 20260506233501 | 45 | 242 | 1.7 | 0.0 | 0.00 | 0.00 | 0.00 | 92 | 1010.4 |
| 20260506233001 | 45 | 221 | 1.7 | 0.0 | 0.00 | 0.00 | 0.00 | 92 | 1010.4 |
| 20260506232502 | 45 | 217 | 2.6 | 0.0 | 0.00 | 0.00 | 0.00 | 92 | 1010.4 |
| 20260506232001 | 45 | 239 | 1.7 | 0.0 | 0.00 | 0.00 | 0.00 | 92 | 1010.3 |
| 20260506231504 | 45 | 239 | 1.7 | 0.0 | 0.00 | 0.00 | 0.00 | 92 | 1010.3 |
| 20260506231002 | 45 | 240 | 1.7 | 0.0 | 0.00 | 0.00 | 0.00 | 92 | 1010.2 |
| 20260506230501 | 45 | 236 | 3.5 | 0.0 | 0.00 | 0.00 | 0.00 | 93 | 1010.2 |
| 20260506230002 | 44 | 233 | 3.5 | 0.0 | 0.00 | 0.00 | 0.00 | 93 | 1010.3 |
| 20260506225502 | 44 | 250 | 2.6 | 0.0 | 0.00 | 0.00 | 0.00 | 93 | 1010.3 |
| 20260506225001 | 45 | 242 | 4.3 | 0.0 | 0.00 | 0.00 | 0.00 | 93 | 1010.2 |
| 20260506224501 | 45 | 227 | 4.3 | 0.0 | 0.00 | 0.00 | 0.00 | 93 | 1010.2 |
| 20260506224002 | 45 | 230 | 5.2 | 0.0 | 0.00 | 0.00 | 0.00 | 93 | 1010.1 |
| 20260506223501 | 45 | 228 | 3.5 | 0.0 | 0.00 | 0.00 | 0.00 | 93 | 1010.1 |
| 20260506223002 | 45 | 236 | 3.5 | 0.0 | 0.00 | 0.00 | 0.00 | 92 | 1010.3 |
| 20260506222503 | 44 | 213 | 4.3 | 0.0 | 0.00 | 0.00 | 0.00 | 92 | 1010.1 |
| 20260506222001 | 44 | 239 | 5.2 | 0.0 | 0.00 | 0.00 | 0.00 | 92 | 1010.1 |
| 20260506221502 | 44 | 240 | 4.3 | 0.0 | 0.00 | 0.00 | 0.00 | 92 | 1010.1 |
| 20260506221002 | 44 | 243 | 3.5 | 0.0 | 0.00 | 0.00 | 0.00 | 92 | 1010.1 |
| 20260506220501 | 45 | 237 | 3.5 | 0.0 | 0.00 | 0.00 | 0.00 | 91 | 1010.1 |
| 20260506220001 | 45 | 206 | 5.2 | 0.0 | 0.00 | 0.00 | 0.00 | 91 | 1010.0 |
| 20260506215503 | 45 | 212 | 3.5 | 0.0 | 0.00 | 0.00 | 0.00 | 90 | 1010.0 |
| 20260506215001 | 45 | 217 | 3.5 | 0.0 | 0.00 | 0.00 | 0.00 | 90 | 1010.0 |
| 20260506214501 | 45 | 208 | 3.5 | 0.0 | 0.00 | 0.00 | 0.00 | 89 | 1010.0 |
| 20260506214002 | 45 | 225 | 4.3 | 0.0 | 0.00 | 0.00 | 0.00 | 88 | 1010.1 |
| 20260506213501 | 46 | 241 | 5.2 | 0.0 | 0.00 | 0.00 | 0.00 | 88 | 1010.0 |
| 20260506213002 | 46 | 252 | 5.2 | 0.0 | 0.00 | 0.00 | 0.00 | 87 | 1010.0 |
| 20260506212502 | 46 | 247 | 4.3 | 0.0 | 0.00 | 0.00 | 0.00 | 87 | 1010.0 |
| 20260506212001 | 46 | 246 | 5.2 | 0.0 | 0.00 | 0.00 | 0.00 | 87 | 1010.0 |
| 20260506211501 | 46 | 248 | 5.2 | 0.0 | 0.00 | 0.00 | 0.00 | 87 | 1010.1 |
| 20260506211002 | 47 | 248 | 4.3 | 0.0 | 0.00 | 0.00 | 0.00 | 87 | 1010.0 |
| 20260506210501 | 46 | 242 | 5.2 | 0.0 | 0.00 | 0.00 | 0.00 | 88 | 1010.0 |
| 20260506210002 | 46 | 248 | 4.3 | 0.0 | 0.00 | 0.00 | 0.00 | 89 | 1009.9 |
| 20260506205502 | 46 | 248 | 3.5 | 0.0 | 0.00 | 0.00 | 0.00 | 89 | 1009.8 |
| 20260506205002 | 46 | 247 | 5.2 | 0.0 | 0.00 | 0.00 | 0.00 | 89 | 1009.7 |
| 20260506204501 | 46 | 241 | 1.7 | 0.0 | 0.00 | 0.00 | 0.00 | 89 | 1009.8 |
| 20260506204002 | 46 | 250 | 3.5 | 0.0 | 0.00 | 0.00 | 0.00 | 90 | 1009.8 |
| 20260506203501 | 46 | 248 | 2.6 | 0.0 | 0.00 | 0.00 | 0.00 | 89 | 1009.8 |
| 20260506203001 | 46 | 240 | 3.5 | 0.0 | 0.00 | 0.00 | 0.00 | 89 | 1009.8 |
| 20260506202503 | 46 | 246 | 3.5 | 0.0 | 0.00 | 0.00 | 0.00 | 90 | 1009.8 |
| 20260506202002 | 46 | 246 | 2.6 | 0.0 | 0.00 | 0.00 | 0.00 | 90 | 1009.8 |
| 20260506201501 | 46 | 236 | 2.6 | 0.0 | 0.00 | 0.00 | 0.00 | 89 | 1009.8 |
| 20260506201003 | 46 | 224 | 2.6 | 0.0 | 0.00 | 0.00 | 0.00 | 89 | 1009.9 |
| 20260506200501 | 46 | 218 | 3.5 | 0.0 | 0.00 | 0.00 | 0.00 | 89 | 1009.7 |
| 20260506200001 | 46 | 220 | 1.7 | 0.0 | 0.00 | 0.00 | 0.00 | 89 | 1009.6 |
| 20260506195502 | 46 | 239 | 3.5 | 0.0 | 0.00 | 0.00 | 0.00 | 88 | 1009.5 |
| 20260506195001 | 47 | 216 | 3.5 | 0.0 | 0.00 | 0.00 | 0.00 | 87 | 1009.5 |
| 20260506194501 | 47 | 207 | 5.2 | 0.0 | 0.00 | 0.00 | 0.00 | 87 | 1009.4 |
| 20260506194003 | 47 | 214 | 3.5 | 0.0 | 0.00 | 0.00 | 0.00 | 87 | 1009.4 |
| 20260506193502 | 47 | 221 | 2.6 | 0.0 | 0.00 | 0.00 | 0.00 | 87 | 1009.5 |
| 20260506193002 | 47 | 204 | 3.5 | 0.0 | 0.00 | 0.00 | 0.00 | 87 | 1009.5 |
| 20260506192502 | 46 | 208 | 4.3 | 0.0 | 0.00 | 0.00 | 0.00 | 87 | 1009.4 |
| 20260506192005 | 46 | 239 | 3.5 | 0.0 | 0.00 | 0.00 | 0.00 | 87 | 1009.3 |
| 20260506191502 | 46 | 245 | 2.6 | 0.0 | 0.00 | 0.00 | 0.00 | 87 | 1009.2 |
| 20260506191002 | 47 | 238 | 3.5 | 0.0 | 0.00 | 0.00 | 0.00 | 86 | 1009.2 |
| 20260506190502 | 47 | 243 | 1.7 | 0.0 | 0.00 | 0.00 | 0.00 | 86 | 1009.1 |
| 20260506190002 | 47 | 239 | 3.5 | 0.0 | 0.00 | 0.00 | 0.00 | 85 | 1009.0 |
| 20260506185503 | 48 | 241 | 4.3 | 0.0 | 0.00 | 0.00 | 0.00 | 85 | 1009.0 |
| 20260506185001 | 48 | 224 | 3.5 | 0.0 | 0.00 | 0.00 | 0.00 | 86 | 1008.9 |
| 20260506184502 | 48 | 239 | 2.6 | 0.0 | 0.00 | 0.00 | 0.00 | 86 | 1008.8 |
| 20260506184002 | 48 | 238 | 1.7 | 0.0 | 0.00 | 0.00 | 0.00 | 86 | 1008.8 |
| 20260506183501 | 48 | 209 | 2.6 | 0.0 | 0.00 | 0.00 | 0.00 | 85 | 1008.8 |
| 20260506183002 | 48 | 252 | 1.7 | 0.0 | 0.00 | 0.00 | 0.00 | 85 | 1008.7 |
| 20260506182501 | 48 | 224 | 2.6 | 0.0 | 0.00 | 0.00 | 0.00 | 85 | 1008.7 |
| 20260506182002 | 49 | 256 | 2.6 | 0.0 | 0.00 | 0.00 | 0.00 | 85 | 1008.7 |
| 20260506181501 | 49 | 277 | 3.5 | 0.0 | 0.00 | 0.00 | 0.00 | 85 | 1008.7 |
| 20260506181002 | 49 | 228 | 1.7 | 0.0 | 0.00 | 0.00 | 0.00 | 85 | 1008.6 |
| 20260506180501 | 49 | 251 | 3.5 | 0.0 | 0.00 | 0.00 | 0.00 | 84 | 1008.6 |
| 20260506180002 | 49 | 260 | 2.6 | 0.0 | 0.00 | 0.00 | 0.00 | 84 | 1008.6 |
| 20260506175502 | 49 | 272 | 2.6 | 0.0 | 0.00 | 0.00 | 0.00 | 84 | 1008.5 |
| 20260506175002 | 49 | 242 | 3.5 | 0.0 | 0.00 | 0.00 | 0.00 | 84 | 1008.5 |
| 20260506174502 | 49 | 237 | 3.5 | 0.0 | 0.00 | 0.00 | 0.00 | 84 | 1008.4 |
| 20260506174001 | 49 | 241 | 3.5 | 0.0 | 0.00 | 0.00 | 0.00 | 84 | 1008.4 |
| 20260506173502 | 49 | 249 | 7.8 | 0.0 | 0.00 | 0.00 | 0.00 | 85 | 1008.4 |
| 20260506173004 | 49 | 242 | 1.7 | 0.0 | 0.00 | 0.00 | 0.00 | 86 | 1008.4 |
| 20260506172502 | 50 | 239 | 3.5 | 0.0 | 0.00 | 0.00 | 0.00 | 86 | 1008.3 |
| 20260506172002 | 50 | 246 | 4.3 | 0.0 | 0.00 | 0.00 | 0.00 | 86 | 1008.2 |
| 20260506171502 | 50 | 246 | 3.5 | 0.0 | 0.00 | 0.00 | 0.00 | 86 | 1008.1 |
| 20260506171001 | 49 | 245 | 4.3 | 0.0 | 0.00 | 0.00 | 0.00 | 88 | 1008.1 |
| 20260506170502 | 49 | 256 | 4.3 | 0.0 | 0.00 | 0.00 | 0.00 | 88 | 1008.0 |
| 20260506170001 | 49 | 270 | 5.2 | 0.0 | 0.00 | 0.00 | 0.00 | 88 | 1008.0 |
| 20260506165502 | 49 | 248 | 7.0 | 0.0 | 0.00 | 0.00 | 0.00 | 88 | 1008.0 |
| 20260506165002 | 49 | 276 | 4.3 | 0.0 | 0.00 | 0.00 | 0.00 | 88 | 1007.9 |
| 20260506164002 | 48 | 253 | 5.2 | 0.0 | 0.00 | 0.00 | 0.00 | 88 | 1008.0 |
| 20260506163503 | 48 | 245 | 5.2 | 0.0 | 0.00 | 0.00 | 0.00 | 88 | 1007.8 |
| 20260506163002 | 48 | 272 | 3.5 | 0.0 | 0.00 | 0.00 | 0.00 | 89 | 1007.8 |
| 20260506162501 | 48 | 271 | 1.7 | 0.0 | 0.00 | 0.00 | 0.00 | 88 | 1007.9 |
| 20260506162002 | 48 | 249 | 4.3 | 0.0 | 0.00 | 0.00 | 0.00 | 89 | 1007.9 |
| 20260506161501 | 48 | 251 | 7.0 | 0.0 | 0.00 | 0.00 | 0.00 | 89 | 1007.9 |
| 20260506161001 | 48 | 263 | 5.2 | 0.0 | 0.00 | 0.00 | 0.00 | 89 | 1007.9 |
| 20260506160501 | 48 | 251 | 8.7 | 0.0 | 0.00 | 0.00 | 0.00 | 90 | 1007.9 |
| 20260506160002 | 48 | 242 | 4.3 | 0.0 | 0.00 | 0.00 | 0.00 | 90 | 1007.8 |
| 20260506155502 | 48 | 269 | 4.3 | 0.0 | 0.00 | 0.00 | 0.00 | 90 | 1007.8 |
| 20260506155001 | 48 | 244 | 5.2 | 0.0 | 0.00 | 0.00 | 0.00 | 90 | 1007.8 |
| 20260506154502 | 48 | 244 | 3.5 | 0.0 | 0.00 | 0.00 | 0.00 | 91 | 1007.7 |
| 20260506154001 | 48 | 261 | 3.5 | 0.0 | 0.00 | 0.00 | 0.00 | 91 | 1007.7 |
| 20260506153502 | 48 | 251 | 3.5 | 0.0 | 0.00 | 0.00 | 0.00 | 92 | 1007.6 |
| 20260506153001 | 48 | 238 | 3.5 | 0.0 | 0.00 | 0.00 | 0.00 | 92 | 1007.5 |
| 20260506152501 | 47 | 282 | 5.2 | 0.0 | 0.00 | 0.00 | 0.00 | 92 | 1007.5 |
| 20260506152001 | 47 | 267 | 5.2 | 0.0 | 0.00 | 0.00 | 0.00 | 92 | 1007.4 |
| 20260506151501 | 46 | 272 | 5.2 | 0.0 | 0.00 | 0.00 | 0.00 | 92 | 1007.5 |
| 20260506151002 | 46 | 262 | 7.0 | 0.0 | 0.00 | 0.00 | 0.00 | 92 | 1007.3 |
| 20260506150501 | 46 | 268 | 7.0 | 0.0 | 0.00 | 0.00 | 0.00 | 91 | 1007.2 |
| 20260506150003 | 47 | 253 | 6.1 | 0.0 | 0.00 | 0.00 | 0.00 | 91 | 1007.5 |
| 20260506145502 | 47 | 258 | 12.2 | 0.0 | 0.00 | 0.00 | 0.00 | 91 | 1007.6 |
| 20260506145002 | 47 | 282 | 12.2 | 0.0 | 0.00 | 0.00 | 0.00 | 91 | 1007.6 |
| 20260506144501 | 47 | 242 | 12.2 | 0.0 | 0.00 | 0.00 | 0.00 | 91 | 1007.6 |
| 20260506144002 | 47 | 261 | 11.3 | 0.0 | 0.00 | 0.00 | 0.00 | 90 | 1007.4 |
| 20260506143501 | 48 | 269 | 7.8 | 0.0 | 0.00 | 0.00 | 0.00 | 90 | 1007.2 |
| 20260506143001 | 49 | 265 | 9.6 | 0.0 | 0.00 | 0.00 | 0.00 | 89 | 1006.9 |
| 20260506142502 | 49 | 269 | 10.4 | 0.0 | 0.00 | 0.00 | 0.00 | 88 | 1006.5 |
| 20260506142002 | 50 | 278 | 15.6 | 0.0 | 0.00 | 0.00 | 0.00 | 85 | 1006.5 |
| 20260506141502 | 50 | 270 | 7.8 | 0.0 | 0.00 | 0.00 | 0.00 | 81 | 1006.5 |
| 20260506141002 | 53 | 279 | 12.2 | 0.0 | 0.00 | 0.00 | 0.00 | 74 | 1006.2 |
| 20260506140502 | 57 | 240 | 11.3 | 0.0 | 0.00 | 0.00 | 0.00 | 71 | 1005.9 |
| 20260506140001 | 57 | 246 | 2.6 | 0.0 | 0.00 | 0.00 | 0.00 | 71 | 1005.8 |
| 20260506135501 | 58 | 243 | 2.6 | 0.0 | 0.00 | 0.00 | 0.00 | 71 | 1005.6 |
| 20260506135001 | 58 | 243 | 5.2 | 0.0 | 0.00 | 0.00 | 0.00 | 71 | 1005.5 |
| 20260506134502 | 59 | 244 | 4.3 | 0.0 | 0.00 | 0.00 | 0.00 | 70 | 1005.5 |
| 20260506134002 | 59 | 272 | 1.7 | 0.0 | 0.00 | 0.00 | 0.00 | 68 | 1005.5 |
| 20260506133502 | 59 | 282 | 0.0 | 0.0 | 0.00 | 0.00 | 0.00 | 70 | 1005.4 |
| 20260506133002 | 59 | 284 | 7.0 | 0.0 | 0.00 | 0.00 | 0.00 | 69 | 1005.5 |
| 20260506132501 | 58 | 243 | 1.7 | 0.0 | 0.00 | 0.00 | 0.00 | 70 | 1005.5 |
| 20260506132003 | 59 | 274 | 7.0 | 0.0 | 0.00 | 0.00 | 0.00 | 72 | 1005.4 |
| 20260506131502 | 59 | 256 | 4.3 | 0.0 | 0.00 | 0.00 | 0.00 | 70 | 1005.5 |
| 20260506131002 | 59 | 217 | 4.3 | 0.0 | 0.00 | 0.00 | 0.00 | 73 | 1005.4 |
| 20260506130501 | 58 | 218 | 2.6 | 0.0 | 0.00 | 0.00 | 0.00 | 74 | 1005.4 |
| 20260506130002 | 57 | 183 | 2.6 | 0.0 | 0.00 | 0.00 | 0.00 | 73 | 1005.3 |
| 20260506125502 | 57 | 213 | 3.5 | 0.0 | 0.00 | 0.00 | 0.00 | 73 | 1005.6 |
| 20260506125002 | 57 | 209 | 4.3 | 0.0 | 0.00 | 0.00 | 0.00 | 74 | 1005.7 |
| 20260506124502 | 57 | 222 | 4.3 | 0.0 | 0.00 | 0.00 | 0.00 | 73 | 1005.6 |
| 20260506124001 | 57 | 248 | 3.5 | 0.0 | 0.00 | 0.00 | 0.00 | 71 | 1005.7 |
| 20260506123502 | 58 | 257 | 3.5 | 0.0 | 0.00 | 0.00 | 0.00 | 69 | 1005.5 |
| 20260506123001 | 58 | 238 | 3.5 | 0.0 | 0.00 | 0.00 | 0.00 | 68 | 1005.6 |
| 20260506122502 | 58 | 226 | 3.5 | 0.0 | 0.00 | 0.00 | 0.00 | 66 | 1005.5 |
| 20260506122001 | 58 | 319 | 1.7 | 0.0 | 0.00 | 0.00 | 0.00 | 67 | 1005.4 |
| 20260506121502 | 58 | 238 | 1.7 | 0.0 | 0.00 | 0.00 | 0.00 | 69 | 1005.4 |
| 20260506121002 | 58 | 253 | 1.7 | 0.0 | 0.00 | 0.00 | 0.00 | 69 | 1005.3 |
| 20260506120502 | 57 | 230 | 0.9 | 0.0 | 0.00 | 0.00 | 0.00 | 67 | 1005.3 |
| 20260506120002 | 57 | 272 | 2.6 | 0.0 | 0.00 | 0.00 | 0.00 | 69 | 1005.2 |
| 20260506115501 | 58 | 278 | 2.6 | 0.0 | 0.00 | 0.00 | 0.00 | 69 | 1005.1 |
| 20260506115002 | 58 | 301 | 0.9 | 0.0 | 0.00 | 0.00 | 0.00 | 67 | 1005.1 |
| 20260506114501 | 57 | 307 | 1.7 | 0.0 | 0.00 | 0.00 | 0.00 | 68 | 1005.1 |
| 20260506114002 | 58 | 334 | 2.6 | 0.0 | 0.00 | 0.00 | 0.00 | 68 | 1005.1 |
| 20260506113502 | 58 | 350 | 0.9 | 0.0 | 0.00 | 0.00 | 0.00 | 67 | 1005.1 |
| 20260506113002 | 59 | 326 | 1.7 | 0.0 | 0.00 | 0.00 | 0.00 | 65 | 1005.3 |
| 20260506112501 | 58 | 356 | 0.0 | 0.0 | 0.00 | 0.00 | 0.00 | 66 | 1005.3 |
| 20260506112004 | 58 | 335 | 1.7 | 0.0 | 0.00 | 0.00 | 0.00 | 68 | 1005.3 |
| 20260506111501 | 57 | 356 | 0.0 | 0.0 | 0.00 | 0.00 | 0.00 | 66 | 1005.3 |
| 20260506111001 | 58 | 73 | 0.9 | 0.0 | 0.00 | 0.00 | 0.00 | 67 | 1005.4 |
| 20260506110502 | 58 | 29 | 0.9 | 0.0 | 0.00 | 0.00 | 0.00 | 66 | 1005.6 |
| 20260506110001 | 58 | 96 | 0.9 | 0.0 | 0.00 | 0.00 | 0.00 | 68 | 1005.6 |
| 20260506105502 | 58 | 354 | 1.7 | 0.0 | 0.00 | 0.00 | 0.00 | 69 | 1005.6 |
| 20260506105001 | 58 | 266 | 0.0 | 0.0 | 0.00 | 0.00 | 0.00 | 69 | 1005.6 |
| 20260506104502 | 58 | 0 | 0.0 | 0.0 | 0.00 | 0.00 | 0.00 | 70 | 1005.5 |
| 20260506104001 | 58 | 212 | 0.9 | 0.0 | 0.00 | 0.00 | 0.00 | 69 | 1005.7 |
| 20260506103503 | 57 | 347 | 1.7 | 0.0 | 0.00 | 0.00 | 0.00 | 70 | 1005.7 |
| 20260506103001 | 57 | 28 | 1.7 | 0.0 | 0.00 | 0.00 | 0.00 | 70 | 1005.7 |
| 20260506102502 | 58 | 333 | 3.5 | 0.0 | 0.00 | 0.00 | 0.00 | 69 | 1005.8 |
| 20260506102001 | 59 | 304 | 1.7 | 0.0 | 0.00 | 0.00 | 0.00 | 71 | 1005.8 |
| 20260506101501 | 57 | 50 | 2.6 | 0.0 | 0.00 | 0.00 | 0.00 | 70 | 1005.7 |
| 20260506101002 | 57 | 1 | 1.7 | 0.0 | 0.00 | 0.00 | 0.00 | 72 | 1005.8 |
| 20260506100502 | 57 | 266 | 0.9 | 0.0 | 0.00 | 0.00 | 0.00 | 73 | 1005.8 |
| 20260506100002 | 56 | 192 | 1.7 | 0.0 | 0.00 | 0.00 | 0.00 | 73 | 1006.0 |
| 20260506095501 | 56 | 268 | 2.6 | 0.0 | 0.00 | 0.00 | 0.00 | 71 | 1006.0 |
| 20260506095002 | 56 | 342 | 1.7 | 0.0 | 0.00 | 0.00 | 0.00 | 72 | 1005.9 |
| 20260506094501 | 56 | 171 | 0.9 | 0.0 | 0.00 | 0.00 | 0.00 | 75 | 1005.8 |
| 20260506094002 | 55 | 32 | 1.7 | 0.0 | 0.00 | 0.00 | 0.00 | 78 | 1005.7 |
| 20260506093501 | 54 | 41 | 3.5 | 0.0 | 0.00 | 0.00 | 0.00 | 79 | 1005.7 |
| 20260506093002 | 54 | 28 | 4.3 | 0.0 | 0.00 | 0.00 | 0.00 | 79 | 1005.6 |
| 20260506092502 | 55 | 30 | 3.5 | 0.0 | 0.00 | 0.00 | 0.00 | 79 | 1005.8 |
| 20260506092001 | 55 | 42 | 1.7 | 0.0 | 0.00 | 0.00 | 0.00 | 79 | 1005.9 |
| 20260506091502 | 55 | 135 | 0.9 | 0.0 | 0.00 | 0.00 | 0.00 | 80 | 1006.0 |
| 20260506091001 | 55 | 127 | 0.0 | 0.0 | 0.00 | 0.00 | 0.00 | 80 | 1006.1 |
| 20260506090502 | 55 | 147 | 0.9 | 0.0 | 0.00 | 0.00 | 0.00 | 79 | 1006.2 |
| 20260506090001 | 55 | 211 | 0.9 | 0.0 | 0.00 | 0.00 | 0.00 | 79 | 1006.2 |
| 20260506085501 | 55 | 128 | 0.9 | 0.0 | 0.00 | 0.00 | 0.00 | 79 | 1006.2 |
| 20260506085001 | 55 | 40 | 1.7 | 0.0 | 0.00 | 0.00 | 0.00 | 77 | 1006.0 |
| 20260506084502 | 55 | 343 | 0.9 | 0.0 | 0.00 | 0.00 | 0.00 | 77 | 1006.1 |
| 20260506084002 | 55 | 33 | 0.9 | 0.0 | 0.00 | 0.00 | 0.00 | 77 | 1006.1 |
| 20260506083502 | 55 | 57 | 0.9 | 0.0 | 0.00 | 0.00 | 0.00 | 78 | 1006.1 |
| 20260506083002 | 54 | 61 | 0.9 | 0.0 | 0.00 | 0.00 | 0.00 | 79 | 1006.0 |
| 20260506082501 | 54 | 0 | 0.0 | 0.0 | 0.00 | 0.00 | 0.00 | 81 | 1005.9 |
| 20260506082002 | 54 | 93 | 2.6 | 0.0 | 0.00 | 0.00 | 0.00 | 81 | 1005.9 |
| 20260506081501 | 54 | 120 | 3.5 | 0.0 | 0.00 | 0.00 | 0.00 | 80 | 1005.9 |
| 20260506081001 | 54 | 87 | 1.7 | 0.0 | 0.00 | 0.00 | 0.00 | 81 | 1005.8 |
| 20260506080501 | 54 | 103 | 3.5 | 0.0 | 0.00 | 0.00 | 0.00 | 82 | 1005.8 |
| 20260506073502 | 51 | 75 | 1.7 | 0.0 | 0.00 | 0.00 | 0.00 | 88 | 1006.0 |
| 20260506073001 | 51 | 69 | 1.7 | 0.0 | 0.00 | 0.00 | 0.00 | 89 | 1006.1 |
| 20260506072502 | 51 | 79 | 2.6 | 0.0 | 0.00 | 0.00 | 0.00 | 90 | 1006.1 |
| 20260506072001 | 50 | 60 | 2.6 | 0.0 | 0.00 | 0.00 | 0.00 | 91 | 1006.0 |
| 20260506071502 | 50 | 45 | 2.6 | 0.0 | 0.00 | 0.00 | 0.00 | 91 | 1006.0 |
| 20260506071002 | 50 | 43 | 3.5 | 0.0 | 0.00 | 0.00 | 0.00 | 91 | 1005.9 |
| 20260506070502 | 50 | 40 | 2.6 | 0.0 | 0.00 | 0.00 | 0.00 | 91 | 1006.0 |
| 20260506062502 | 49 | 179 | 1.7 | 0.0 | 0.00 | 0.00 | 0.00 | 94 | 1006.4 |
| 20260506062002 | 49 | 180 | 1.7 | 0.0 | 0.00 | 0.00 | 0.00 | 94 | 1006.2 |
| 20260506061502 | 49 | 99 | 0.0 | 0.0 | 0.00 | 0.00 | 0.00 | 95 | 1006.1 |
| 20260506061001 | 48 | 139 | 0.0 | 0.0 | 0.00 | 0.00 | 0.00 | 96 | 1006.3 |
| 20260506060502 | 48 | 60 | 1.7 | 0.0 | 0.00 | 0.00 | 0.00 | 95 | 1006.2 |